Wind_Speed
2 2 3 3 4 4 4 4 4 4 4 3 3 3 4 3 2 2 2 2 1 0 1 2 2 3 3 3 3 3 3 3 4 5 5 6 6 6 5 5 6 6 7
1 1 1 2 2 2 3 4 4 4 4 4 3 3 3 2 2 2 2 2 2 2 2 3 3 4 4 4 4 4 5 5 5 6 7 7 7 7 7 7 6 7 7
1 0 1 2 2 3 3 4 4 4 4 4 3 3 3 2 2 2 2 3 3 3 3 4 4 4 4 5 5 5 6 6 6 7 8 8 9 9 9 9 9 8 8
1 1 1 2 3 4 4 4 5 5 5 5 4 4 4 4 3 3 3 3 4 4 4 5 5 5 6 6 5 6 6 7 7 8 8 9 9 9 10 10 10 10 10
2 2 1 2 2 3 4 5 6 6 5 6 6 6 5 5 5 5 4 5 5 6 6 6 6 6 6 7 7 7 8 8 8 8 9 9 9 9 10 10 11 11 11
4 3 2 2 2 3 4 5 6 6 7 7 7 7 6 6 6 6 6 6 6 7 7 7 7 7 8 8 9 9 10 10 10 10 10 10 10 10 10 11 11 11 12
4 3 3 3 3 3 4 5 6 6 7 7 7 7 7 7 7 7 7 8 8 8 8 9 9 9 10 10 10 10 11 11 11 11 12 11 11 12 12 13 13 13 13
5 4 3 3 3 4 4 5 6 7 7 7 8 8 8 9 9 9 8 9 9 9 9 10 11 11 12 12 12 12 12 12 12 12 13 13 13 13 13 14 14 14 14
6 6 5 4 4 4 5 5 6 7 7 8 9 9 9 9 10 10 10 10 10 10 11 11 12 12 13 13 13 13 14 14 14 14 14 15 15 15 15 15 15 15 16
6 6 5 5 4 5 5 6 6 7 7 8 9 10 10 10 10 10 11 11 12 12 12 13 13 14 14 14 14 15 15 16 16 16 16 16 17 17 17 17 17 18 18
7 7 6 5 5 6 6 6 6 7 8 8 8 9 10 11 11 12 12 12 13 13 13 14 14 14 14 15 15 16 16 16 17 17 17 17 18 18 18 19 19 20 20
7 7 7 6 6 6 6 6 6 7 8 8 9 10 11 11 12 12 12 13 13 14 14 14 15 15 15 16 15 16 16 17 17 17 18 19 19 19 19 20 20 20 21
8 8 7 8 7 7 7 7 8 8 8 9 10 10 11 12 13 13 14 14 15 15 15 15 15 16 16 16 16 17 17 17 17 18 19 19 19 20 20 20 21 21 22
9 8 8 8 8 8 8 8 9 9 10 10 10 11 12 13 14 14 15 15 16 16 16 16 17 17 17 17 18 18 18 19 19 19 19 20 20 20 21 22 22 22 23
10 9 9 9 9 9 9 10 10 10 10 11 12 13 13 14 15 16 16 17 17 17 17 18 18 18 19 19 19 20 21 21 21 21 21 21 22 22 22 23 23 24 24
11 11 11 11 11 10 10 11 11 11 12 13 13 14 15 16 16 17 17 18 18 18 19 19 20 20 21 21 21 22 22 22 22 22 22 23 23 23 24 24 25 25 25
13 12 12 12 12 12 12 13 13 13 13 14 15 15 16 16 16 17 17 18 18 19 19 20 21 22 22 22 23 23 24 24 23 23 24 24 24 24 25 25 25 26 26
14 14 13 13 13 13 14 14 15 15 15 15 16 16 16 17 17 17 18 19 20 20 21 22 23 24 24 24 25 25 24 25 25 25 25 25 26 26 26 26 26 26 26
16 16 15 15 15 15 15 15 16 16 17 17 18 18 18 18 19 20 20 21 22 22 23 23 24 25 25 26 26 26 26 25 26 26 26 26 26 25 25 26 26 26 26
18 18 17 17 17 17 17 17 18 18 18 18 19 19 19 20 20 21 22 22 23 24 24 25 25 26 26 27 27 26 26 27 27 27 27 27 27 27 27 27 27 27 27
20 20 19 19 19 19 19 19 19 19 20 20 20 21 21 21 21 23 23 24 25 25 26 26 26 26 26 27 26 27 28 28 28 27 28 28 28 28 29 28 28 28 28
21 21 22 22 22 21 21 22 22 22 22 23 23 22 23 23 23 24 25 26 26 26 26 27 27 27 27 27 27 27 28 28 28 28 28 29 29 29 29 29 28 28 28
22 23 24 24 24 24 24 24 24 24 24 25 25 26 26 25 25 25 26 26 27 27 27 27 27 27 27 27 28 28 28 28 28 28 28 28 29 29 29 28 28 28 28
25 25 25 25 25 26 26 26 26 26 26 27 28 28 28 28 28 27 28 28 28 28 28 28 28 28 28 29 29 29 29 29 28 28 28 28 28 29 29 29 29 29 29
27 28 27 27 27 27 27 27 27 28 28 29 29 28 29 28 28 28 29 29 30 29 28 29 29 29 29 29 29 29 29 28 28 29 29 29 29 29 30 30 30 30 30
30 30 30 29 28 28 28 28 28 29 29 30 29 28 29 29 30 30 30 30 30 29 29 29 29 29 28 29 29 29 29 29 29 30 30 30 30 30 31 31 31 31 31
Wind_Direction
97 127 152 153 155 155 161 159 164 171 169 160 158 162 170 174 167 165 175 193 198 268 264 266 275 286 293 294 298 292 296 297 292 289 292 293 293 291 285 278 274 271 272
78 104 154 170 178 186 189 183 183 185 184 181 176 171 183 192 194 205 222 235 245 270 275 278 282 283 285 290 294 299 297 297 295 295 293 287 287 286 281 280 280 277 274
20 72 192 199 213 224 219 212 205 201 201 201 202 208 214 220 219 231 244 252 267 275 275 276 280 284 281 282 289 294 296 294 294 296 296 290 282 281 280 280 278 278 277
351 286 248 233 237 237 233 226 218 216 217 220 222 231 235 240 246 256 258 259 268 273 275 276 280 281 278 278 285 289 294 294 297 296 295 292 286 282 281 280 278 279 281
16 350 297 265 248 239 239 234 228 229 234 236 237 240 245 250 256 263 264 267 273 276 277 277 278 279 283 282 287 287 290 294 297 295 293 291 290 285 282 280 282 279 280
9 357 331 301 276 259 249 246 243 241 242 243 243 246 248 252 260 264 267 272 277 277 276 278 278 279 282 285 289 290 289 290 291 291 290 290 289 287 285 281 283 282 281
1 347 334 307 289 277 274 268 263 255 250 250 253 255 259 262 264 269 272 273 277 276 274 276 274 282 284 286 288 289 288 288 290 291 290 289 286 285 283 281 281 280 280
355 345 339 322 307 290 280 274 272 267 264 260 261 262 265 272 270 268 270 274 276 273 275 279 279 283 284 284 285 285 284 285 288 289 290 287 286 285 283 281 281 280 281
344 343 337 325 315 307 290 280 279 278 273 269 268 270 271 275 276 274 274 277 278 277 279 280 279 279 281 283 285 284 283 284 285 286 287 285 284 283 281 281 279 280 281
342 336 333 326 319 311 298 292 290 290 283 278 274 276 275 275 279 282 282 279 279 279 280 282 283 281 281 282 284 285 285 285 286 286 286 286 285 282 279 281 281 280 282
335 334 325 319 315 310 300 293 298 299 293 285 282 284 283 279 278 282 283 283 282 282 284 283 283 285 284 283 286 287 286 283 283 284 286 286 287 284 281 282 282 282 282
329 326 323 313 308 305 303 302 306 310 304 298 294 289 286 284 279 280 281 283 285 285 285 285 285 285 285 286 288 288 288 288 287 286 286 286 286 285 284 283 283 283 283
326 325 322 319 309 299 298 299 301 304 306 303 300 298 294 290 285 283 282 283 284 285 286 285 285 285 285 287 287 286 288 288 288 287 287 286 286 284 284 285 284 283 283
325 328 328 321 318 306 300 300 299 301 305 306 305 302 299 296 291 289 287 287 287 288 289 287 285 286 287 288 287 287 288 288 286 285 286 286 286 284 284 285 285 284 283
323 322 320 320 316 312 305 302 303 302 304 307 305 303 300 299 295 293 291 291 291 290 289 290 290 289 288 289 289 289 289 289 286 284 285 286 285 284 284 284 284 285 284
322 317 314 312 311 309 309 303 301 298 298 302 303 301 300 299 299 298 295 293 292 293 292 291 290 290 290 289 288 288 289 289 288 287 286 286 285 284 284 284 283 283 283
321 316 312 310 307 305 306 305 303 301 301 303 304 304 301 300 300 300 301 299 296 294 293 292 292 291 290 289 288 288 288 288 289 288 287 285 284 284 285 284 283 283 282
316 314 310 309 306 305 305 305 303 302 302 303 305 305 302 301 302 302 302 301 298 296 294 293 291 291 290 290 289 288 289 290 289 288 287 287 285 283 284 284 284 284 283
310 308 306 305 305 303 304 304 304 301 300 300 301 303 303 302 302 303 303 302 300 299 297 295 293 292 290 290 289 289 290 291 291 290 288 287 286 286 285 286 286 286 285
307 304 300 299 300 302 304 304 304 303 301 301 302 302 302 302 301 300 300 299 299 299 298 296 295 294 294 292 291 291 291 291 290 290 288 286 286 286 286 286 285 286 287
305 301 299 298 298 298 299 301 302 302 304 303 302 302 303 304 302 301 301 300 298 299 298 297 295 294 294 293 292 292 292 291 290 288 287 285 285 286 286 286 286 287 287
302 303 301 300 299 298 299 300 301 302 302 304 304 302 302 302 302 302 301 301 300 300 299 298 297 296 294 293 292 292 293 292 291 289 287 286 286 287 287 288 288 287 286
299 301 300 299 298 297 297 299 300 300 300 301 303 302 300 299 299 300 301 300 299 299 300 301 299 297 295 293 293 293 293 293 292 290 290 288 288 286 286 288 290 289 288
294 297 296 295 295 294 294 295 297 298 298 299 300 301 300 299 297 297 299 300 300 299 299 298 298 297 295 294 293 294 293 292 292 291 291 289 289 289 289 289 288 289 289
292 294 293 292 292 292 293 294 296 296 298 299 298 299 299 299 299 297 297 298 299 298 297 297 298 297 296 295 295 295 294 292 292 291 290 290 290 289 289 290 290 290 291
292 292 290 290 290 291 292 295 296 297 297 297 296 298 300 299 299 299 298 298 297 296 296 298 298 297 297 297 296 295 293 292 292 292 291 290 289 289 289 290 290 290 290
Height
5889 5889 5890 5891 5892 5892 5893 5893 5894 5895 5895 5896 5897 5897 5898 5898 5899 5899 5899 5900 5900 5901 5901 5901 5901 5901 5901 5901 5901 5901 5901 5901 5901 5901 5901 5901 5901 5901 5901 5900 5900 5900 5900
5890 5891 5891 5891 5892 5893 5894 5894 5895 5895 5896 5897 5897 5898 5898 5899 5899 5899 5899 5899 5900 5900 5900 5901 5901 5901 5901 5901 5901 5901 5901 5900 5900 5900 5900 5900 5900 5900 5900 5899 5899 5899 5899
5890 5891 5891 5892 5892 5893 5894 5894 5895 5896 5896 5897 5897 5898 5898 5899 5899 5899 5899 5899 5899 5900 5900 5900 5900 5900 5900 5900 5900 5900 5899 5899 5899 5899 5898 5898 5898 5898 5898 5898 5898 5897 5897
5890 5891 5891 5891 5892 5893 5893 5894 5895 5895 5896 5896 5897 5897 5898 5898 5898 5898 5898 5899 5899 5899 5899 5899 5899 5899 5899 5899 5899 5899 5898 5898 5897 5897 5897 5896 5896 5896 5896 5896 5895 5895 5895
5891 5891 5891 5891 5892 5892 5893 5893 5894 5895 5895 5896 5896 5897 5897 5897 5897 5897 5897 5898 5898 5898 5898 5897 5897 5897 5897 5897 5897 5897 5896 5896 5896 5895 5895 5894 5894 5894 5894 5893 5893 5893 5893
5891 5891 5891 5891 5891 5891 5892 5892 5893 5893 5894 5894 5895 5895 5896 5896 5896 5896 5896 5896 5896 5896 5896 5896 5896 5896 5896 5896 5895 5895 5895 5894 5894 5893 5893 5892 5892 5891 5891 5891 5891 5890 5890
5892 5891 5891 5891 5891 5891 5891 5891 5892 5892 5892 5893 5893 5893 5894 5894 5894 5894 5894 5894 5894 5894 5894 5894 5893 5894 5894 5893 5893 5892 5892 5892 5891 5890 5890 5890 5889 5889 5888 5888 5888 5887 5887
5892 5891 5891 5891 5890 5890 5890 5890 5890 5891 5891 5891 5891 5891 5892 5893 5892 5892 5892 5892 5892 5892 5892 5892 5891 5891 5891 5891 5890 5889 5889 5889 5888 5888 5887 5886 5886 5886 5885 5885 5884 5884 5883
5891 5891 5890 5890 5890 5890 5889 5889 5889 5889 5889 5889 5890 5890 5890 5890 5889 5889 5889 5889 5889 5889 5889 5889 5889 5888 5888 5887 5887 5886 5886 5885 5885 5884 5884 5883 5882 5882 5881 5881 5880 5880 5879
5891 5890 5890 5889 5889 5889 5889 5888 5888 5888 5888 5888 5888 5888 5888 5888 5887 5887 5887 5886 5887 5886 5886 5886 5885 5885 5885 5884 5883 5883 5882 5882 5881 5880 5880 5879 5878 5878 5877 5876 5876 5876 5875
5890 5890 5889 5889 5888 5888 5887 5887 5887 5886 5886 5885 5885 5885 5885 5885 5885 5885 5884 5884 5884 5883 5883 5882 5882 5881 5880 5880 5880 5879 5878 5878 5877 5876 5876 5875 5874 5873 5872 5872 5871 5871 5870
5890 5889 5888 5888 5887 5887 5886 5886 5885 5885 5884 5884 5883 5883 5883 5882 5882 5882 5881 5881 5880 5880 5879 5879 5878 5877 5877 5876 5875 5875 5874 5873 5872 5872 5871 5870 5869 5868 5868 5867 5866 5865 5865
5889 5888 5887 5886 5886 5885 5885 5884 5884 5883 5882 5882 5881 5881 5880 5880 5879 5879 5878 5877 5877 5876 5876 5875 5874 5873 5873 5872 5871 5870 5870 5869 5868 5867 5866 5865 5864 5863 5863 5862 5861 5860 5859
5888 5887 5886 5885 5884 5883 5883 5882 5882 5881 5881 5880 5879 5878 5878 5877 5876 5875 5875 5874 5873 5872 5871 5871 5870 5869 5868 5868 5867 5866 5865 5864 5862 5861 5861 5860 5859 5858 5857 5856 5855 5854 5853
5886 5885 5884 5883 5882 5881 5881 5880 5880 5879 5878 5878 5877 5876 5875 5874 5873 5872 5871 5870 5869 5868 5868 5867 5865 5865 5863 5863 5862 5861 5860 5859 5857 5856 5855 5854 5853 5852 5851 5850 5849 5848 5847
5884 5883 5882 5881 5880 5879 5879 5878 5877 5876 5876 5875 5874 5873 5871 5870 5869 5868 5866 5865 5864 5864 5863 5862 5861 5860 5858 5857 5856 5855 5854 5853 5852 5850 5849 5848 5847 5846 5845 5844 5842 5841 5840
5882 5881 5880 5879 5878 5877 5876 5875 5874 5873 5872 5871 5870 5869 5868 5866 5865 5864 5862 5861 5860 5859 5858 5857 5855 5854 5853 5851 5850 5849 5848 5847 5846 5844 5843 5842 5840 5839 5838 5837 5835 5834 5833
5880 5879 5878 5877 5876 5874 5873 5872 5871 5870 5869 5868 5866 5865 5863 5862 5861 5860 5858 5857 5855 5854 5853 5852 5850 5848 5847 5846 5845 5843 5842 5841 5839 5838 5836 5835 5834 5832 5831 5830 5828 5827 5826
5878 5876 5875 5874 5873 5871 5870 5869 5868 5867 5865 5864 5863 5861 5859 5858 5857 5855 5854 5852 5850 5849 5847 5846 5844 5842 5841 5840 5838 5837 5835 5834 5832 5831 5829 5828 5826 5825 5824 5822 5821 5820 5818
5874 5873 5872 5871 5870 5868 5867 5866 5864 5863 5861 5860 5858 5857 5855 5853 5852 5850 5849 5847 5845 5843 5841 5839 5838 5836 5834 5832 5831 5830 5828 5826 5825 5823 5822 5820 5819 5818 5816 5815 5813 5812 5811
5870 5869 5868 5867 5866 5865 5863 5862 5860 5859 5857 5856 5854 5852 5850 5848 5847 5845 5843 5841 5839 5837 5834 5833 5831 5829 5827 5825 5824 5823 5821 5819 5817 5816 5814 5813 5811 5810 5808 5807 5805 5804 5803
5866 5865 5864 5862 5861 5860 5859 5857 5856 5854 5852 5851 5849 5847 5845 5843 5841 5839 5837 5835 5833 5830 5828 5825 5823 5821 5820 5818 5817 5815 5813 5812 5810 5809 5807 5805 5804 5802 5801 5799 5798 5796 5794
5861 5860 5858 5857 5856 5855 5853 5852 5850 5849 5847 5845 5843 5841 5839 5837 5835 5832 5830 5827 5825 5823 5821 5819 5816 5814 5813 5811 5809 5808 5806 5804 5802 5800 5799 5797 5796 5794 5793 5791 5789 5788 5786
5855 5853 5852 5851 5850 5849 5847 5846 5844 5843 5841 5839 5837 5835 5833 5830 5828 5826 5823 5821 5818 5816 5813 5811 5809 5807 5805 5803 5801 5799 5798 5796 5794 5792 5791 5790 5788 5787 5785 5783 5781 5779 5777
5848 5847 5845 5844 5843 5842 5840 5839 5837 5836 5834 5833 5831 5828 5826 5823 5821 5819 5817 5814 5811 5809 5806 5804 5802 5799 5797 5795 5792 5791 5789 5788 5786 5784 5783 5781 5780 5778 5776 5774 5772 5771 5769
5841 5839 5838 5837 5835 5835 5834 5832 5830 5829 5827 5826 5823 5821 5819 5816 5814 5811 5809 5806 5804 5801 5799 5796 5794 5792 5790 5787 5785 5783 5781 5780 5778 5776 5774 5773 5771 5769 5768 5765 5763 5761 5760